Location: Poughquag
(41.6090°N, 73.6820°W)
Time: 06:18:29
(UTC-05:00)

Hubble Space Telescope - Pass Details

Date: 22 November 2019
Orbit: 536 x 540 km, 28.5° (Epoch: 14 December)

Event Time Altitude Azimuth Distance (km) Brightness Sun altitude
Rises 17:15:35 0° 223° (SW) 2,665 5.5 -8.8°
Reaches altitude 10° 17:19:28 10° 186° (S) 1,777 3.8 -9.4°
Maximum altitude 17:20:35 11° 170° (S) 1,718 3.5 -9.6°
Drops below altitude 10° 17:21:42 10° 154° (SSE) 1,778 3.3 -9.8°
Enters shadow 17:24:46 - 123° (ESE) 2,423 3.7 -10.4°
